�������l�o���
Date,Time,MP-1(��Sv/h),MP-2(��Sv/h),MP-3(��Sv/h),MP-4(��Sv/h),MP-5(��Sv/h),MP-6(��Sv/h),MP-7(��Sv/h),MP-8(��Sv/h),����,����(m/s),���J
2018/02/18,00:00,0.876,1.477,0.919,1.727,1.189,0.486,0.864,0.837,���k��,3.7,��
2018/02/18,00:10,0.874,1.474,0.919,1.726,1.192,0.485,0.866,0.835,��,4.3,��
2018/02/18,00:20,0.877,1.475,0.920,1.727,1.190,0.485,0.864,0.835,���k��,4.7,��
2018/02/18,00:30,0.877,1.473,0.916,1.726,1.190,0.486,0.864,0.836,��,6.0,��
2018/02/18,00:40,0.876,1.477,0.919,1.726,1.190,0.484,0.865,0.834,��,8.4,��
2018/02/18,00:50,0.878,1.475,0.919,1.726,1.189,0.486,0.866,0.835,���k��,9.5,��
2018/02/18,01:00,0.874,1.475,0.917,1.725,1.186,0.485,0.865,0.835,���k��,7.0,��
2018/02/18,01:10,0.876,1.475,0.920,1.730,1.188,0.483,0.865,0.835,���k��,7.8,��
2018/02/18,01:20,0.876,1.471,0.919,1.728,1.187,0.483,0.864,0.835,��,8.3,��
2018/02/18,01:30,0.875,1.471,0.917,1.728,1.186,0.485,0.864,0.835,��,8.8,��
2018/02/18,01:40,0.877,1.475,0.919,1.727,1.186,0.483,0.864,0.835,��,7.9,��
2018/02/18,01:50,0.877,1.475,0.918,1.729,1.188,0.483,0.863,0.835,��,8.5,��
2018/02/18,02:00,0.875,1.474,0.917,1.725,1.186,0.484,0.863,0.835,��,8.8,��
2018/02/18,02:10,0.876,1.475,0.919,1.728,1.185,0.484,0.865,0.835,��,9.5,��
2018/02/18,02:20,0.875,1.472,0.919,1.728,1.184,0.484,0.864,0.834,��,8.8,��
2018/02/18,02:30,0.875,1.474,0.917,1.725,1.188,0.483,0.864,0.833,��,8.7,��
2018/02/18,02:40,0.877,1.475,0.918,1.724,1.184,0.484,0.866,0.833,��,7.6,��
2018/02/18,02:50,0.877,1.470,0.916,1.721,1.187,0.484,0.865,0.835,��,7.2,��
2018/02/18,03:00,0.876,1.472,0.915,1.726,1.186,0.484,0.862,0.836,���k��,6.1,��
2018/02/18,03:10,0.876,1.475,0.918,1.724,1.186,0.484,0.865,0.836,���k��,6.6,��
2018/02/18,03:20,0.877,1.476,0.919,1.726,1.186,0.484,0.865,0.834,���k��,6.5,��
2018/02/18,03:30,0.874,1.475,0.918,1.726,1.190,0.485,0.865,0.835,���k��,5.5,��
2018/02/18,03:40,0.875,1.472,0.921,1.727,1.190,0.485,0.865,0.835,�k��,6.1,��
2018/02/18,03:50,0.874,1.475,0.919,1.728,1.186,0.484,0.864,0.836,�k��,7.9,��
2018/02/18,04:00,0.875,1.474,0.918,1.725,1.189,0.483,0.864,0.835,�k��,6.2,��
2018/02/18,04:10,0.875,1.475,0.919,1.728,1.191,0.484,0.865,0.836,�k��,7.5,��
2018/02/18,04:20,0.876,1.474,0.919,1.729,1.188,0.485,0.863,0.836,�k��,8.3,��
2018/02/18,04:30,0.875,1.473,0.920,1.728,1.190,0.484,0.865,0.832,�k��,8.4,��
2018/02/18,04:40,0.875,1.474,0.917,1.726,1.189,0.483,0.862,0.835,�k��,8.2,��
2018/02/18,04:50,0.875,1.472,0.918,1.727,1.188,0.485,0.865,0.834,�k��,6.6,��
2018/02/18,05:00,0.878,1.475,0.919,1.726,1.189,0.482,0.862,0.836,�k��,8.9,��
2018/02/18,05:10,0.877,1.473,0.918,1.726,1.188,0.483,0.863,0.835,�k��,10.8,��
2018/02/18,05:20,0.875,1.474,0.919,1.724,1.190,0.484,0.863,0.835,�k��,11.3,��
2018/02/18,05:30,0.875,1.471,0.917,1.729,1.184,0.484,0.861,0.836,�k��,9.8,��
2018/02/18,05:40,0.874,1.472,0.918,1.725,1.188,0.483,0.861,0.835,�k��,9.9,��
2018/02/18,05:50,0.877,1.475,0.918,1.727,1.188,0.481,0.861,0.835,�k��,9.4,��
2018/02/18,06:00,0.876,1.475,0.915,1.728,1.185,0.481,0.863,0.835,�k��,11.1,��
2018/02/18,06:10,0.875,1.476,0.917,1.732,1.184,0.481,0.862,0.835,�k��,9.9,��
2018/02/18,06:20,0.877,1.473,0.917,1.728,1.186,0.484,0.863,0.835,�k��,7.7,��
2018/02/18,06:30,0.874,1.472,0.920,1.728,1.186,0.484,0.864,0.836,�k��,7.4,��
2018/02/18,06:40,0.875,1.471,0.919,1.730,1.186,0.484,0.861,0.835,�k��,5.2,��
2018/02/18,06:50,0.876,1.473,0.918,1.728,1.189,0.484,0.862,0.834,�k��,6.4,��
2018/02/18,07:00,0.876,1.472,0.920,1.727,1.188,0.484,0.864,0.835,�k��,5.4,��
2018/02/18,07:10,0.874,1.473,0.917,1.727,1.188,0.485,0.864,0.835,�k��,5.9,��
2018/02/18,07:20,0.875,1.473,0.918,1.726,1.190,0.483,0.864,0.834,�k��,8.3,��
2018/02/18,07:30,0.877,1.476,0.918,1.729,1.190,0.484,0.865,0.834,���k��,8.5,��
2018/02/18,07:40,0.878,1.476,0.919,1.730,1.191,0.485,0.866,0.833,�k��,7.2,��
2018/02/18,07:50,0.877,1.478,0.917,1.729,1.188,0.485,0.865,0.836,�k��,8.1,��
2018/02/18,08:00,0.878,1.476,0.918,1.728,1.189,0.485,0.866,0.835,�k��,5.5,��
2018/02/18,08:10,0.876,1.477,0.918,1.731,1.189,0.484,0.874,0.836,�k��,7.6,��
2018/02/18,08:20,0.878,1.477,0.916,1.728,1.190,0.485,0.866,0.834,�k��,6.2,��
2018/02/18,08:30,0.877,1.477,0.918,1.731,1.190,0.485,0.865,0.836,�k��,5.7,��
2018/02/18,08:40,0.877,1.476,0.921,1.729,1.190,0.485,0.864,0.835,�k��,5.9,��
2018/02/18,08:50,0.878,1.474,0.921,1.729,1.192,0.485,0.866,0.835,�k��,6.7,��
2018/02/18,09:00,0.878,1.478,0.921,1.731,1.192,0.485,0.865,0.836,�k�k��,6.2,��
2018/02/18,09:10,0.881,1.481,0.921,1.733,1.191,0.484,0.863,0.836,�k��,7.1,��
2018/02/18,09:20,0.881,1.481,0.922,1.731,1.190,0.483,0.866,0.835,�k��,6.3,��
2018/02/18,09:30,0.882,1.482,0.921,1.729,1.193,0.486,0.864,0.838,�k��,10.5,��
2018/02/18,09:40,0.879,1.479,0.922,1.730,1.194,0.484,0.864,0.834,�k��,11.1,��
2018/02/18,09:50,0.882,1.482,0.923,1.733,1.194,0.484,0.864,0.835,���k��,7.0,��
2018/02/18,10:00,0.884,1.482,0.921,1.734,1.193,0.486,0.864,0.836,���k��,7.1,��
2018/02/18,10:10,0.882,1.482,0.921,1.733,1.195,0.483,0.866,0.837,�k��,8.0,��
2018/02/18,10:20,0.882,1.481,0.920,1.735,1.195,0.485,0.865,0.837,�k��,8.8,��
2018/02/18,10:30,0.882,1.483,0.922,1.733,1.196,0.486,0.867,0.838,�k��,7.7,��
2018/02/18,10:40,0.885,1.485,0.922,1.732,1.195,0.486,0.868,0.838,�k��,7.7,��
2018/02/18,10:50,0.884,1.483,0.924,1.733,1.196,0.485,0.867,0.836,�k��,8.1,��
2018/02/18,11:00,0.887,1.486,0.922,1.732,1.196,0.485,0.867,0.834,�k��,7.6,��
2018/02/18,11:10,0.887,1.487,0.922,1.734,1.197,0.484,0.866,0.835,�k��,6.5,��
2018/02/18,11:20,0.886,1.485,0.923,1.735,1.195,0.485,0.867,0.837,�k�k��,6.4,��
2018/02/18,11:30,0.887,1.484,0.924,1.733,1.198,0.484,0.866,0.837,�k��,5.4,��
2018/02/18,11:40,0.884,1.484,0.925,1.734,1.199,0.485,0.867,0.837,�k��,8.2,��
2018/02/18,11:50,0.885,1.485,0.926,1.736,1.200,0.486,0.865,0.836,���k��,6.6,��
2018/02/18,12:00,0.886,1.485,0.927,1.735,1.199,0.487,0.867,0.836,�k��,5.7,��
2018/02/18,12:10,0.886,1.484,0.925,1.736,1.201,0.486,0.868,0.837,�k�k��,7.0,��
2018/02/18,12:20,0.886,1.484,0.926,1.738,1.201,0.486,0.866,0.836,�k��,6.2,��
2018/02/18,12:30,0.888,1.488,0.927,1.738,1.200,0.487,0.866,0.837,�k��,7.5,��
2018/02/18,12:40,0.886,1.487,0.927,1.738,1.202,0.488,0.864,0.838,�k��,7.5,��
2018/02/18,12:50,0.885,1.484,0.926,1.737,1.201,0.487,0.864,0.838,�k��,9.7,��
2018/02/18,13:00,0.886,1.487,0.925,1.736,1.201,0.486,0.865,0.838,�k��,9.0,��
2018/02/18,13:10,0.886,1.488,0.925,1.738,1.203,0.486,0.863,0.837,�k��,8.5,��
2018/02/18,13:20,0.887,1.489,0.927,1.737,1.204,0.488,0.865,0.837,�k��,9.8,��
2018/02/18,13:30,0.888,1.489,0.925,1.741,1.199,0.485,0.865,0.840,�k��,7.3,��
2018/02/18,13:40,0.889,1.488,0.927,1.738,1.202,0.487,0.864,0.839,�k�k��,7.7,��
2018/02/18,13:50,0.889,1.488,0.926,1.742,1.203,0.488,0.865,0.837,�k��,6.5,��
2018/02/18,14:00,0.888,1.489,0.928,1.737,1.202,0.485,0.863,0.838,�k�k��,9.3,��
2018/02/18,14:10,0.887,1.488,0.929,1.740,1.204,0.487,0.865,0.837,�k�k��,7.8,��
2018/02/18,14:20,0.886,1.491,0.931,1.742,1.204,0.487,0.865,0.838,�k��,9.3,��
2018/02/18,14:30,0.888,1.488,0.928,1.740,1.202,0.486,0.866,0.837,�k��,9.8,��
2018/02/18,14:40,0.887,1.492,0.927,1.741,1.204,0.487,0.866,0.836,�k��,10.7,��
2018/02/18,14:50,0.888,1.490,0.927,1.741,1.204,0.486,0.867,0.836,�k��,11.3,��
2018/02/18,15:00,0.886,1.489,0.925,1.739,1.203,0.486,0.869,0.838,�k��,9.5,��
2018/02/18,15:10,0.887,1.487,0.924,1.738,1.205,0.487,0.867,0.837,�k��,10.8,��
2018/02/18,15:20,0.886,1.487,0.925,1.740,1.202,0.485,0.867,0.836,�k��,9.9,��
2018/02/18,15:30,0.885,1.488,0.925,1.741,1.201,0.485,0.865,0.837,�k��,6.9,��
2018/02/18,15:40,0.888,1.488,0.923,1.740,1.205,0.482,0.867,0.836,�k��,6.9,��
2018/02/18,15:50,0.886,1.487,0.923,1.740,1.201,0.484,0.865,0.836,�k��,7.8,��
2018/02/18,16:00,0.884,1.489,0.925,1.740,1.203,0.485,0.867,0.836,�k��,9.5,��
2018/02/18,16:10,0.886,1.488,0.925,1.739,1.205,0.485,0.865,0.837,�k��,8.7,��
2018/02/18,16:20,0.885,1.487,0.924,1.738,1.203,0.484,0.868,0.836,�k��,8.2,��
2018/02/18,16:30,0.886,1.490,0.925,1.738,1.203,0.486,0.867,0.836,�k��,6.7,��
2018/02/18,16:40,0.886,1.487,0.923,1.738,1.203,0.485,0.867,0.835,�k��,8.2,��
2018/02/18,16:50,0.884,1.487,0.924,1.740,1.201,0.485,0.867,0.836,�k��,7.5,��
2018/02/18,17:00,0.887,1.489,0.925,1.740,1.201,0.484,0.867,0.836,�k�k��,5.7,��
2018/02/18,17:10,0.884,1.485,0.924,1.740,1.202,0.485,0.867,0.837,�k�k��,7.1,��
2018/02/18,17:20,0.883,1.489,0.924,1.739,1.200,0.483,0.865,0.836,�k��,8.0,��
2018/02/18,17:30,0.883,1.489,0.923,1.736,1.200,0.483,0.867,0.836,�k�k��,8.4,��
2018/02/18,17:40,0.884,1.488,0.925,1.741,1.200,0.484,0.865,0.835,�k�k��,7.6,��
2018/02/18,17:50,0.882,1.486,0.923,1.739,1.199,0.482,0.866,0.834,�k�k��,7.1,��
2018/02/18,18:00,0.881,1.489,0.924,1.740,1.200,0.483,0.868,0.836,�k�k��,7.9,��
2018/02/18,18:10,0.883,1.485,0.922,1.738,1.203,0.483,0.866,0.836,�k��,8.2,��
2018/02/18,18:20,0.883,1.484,0.922,1.739,1.199,0.483,0.865,0.836,�k�k��,6.3,��
2018/02/18,18:30,0.883,1.484,0.923,1.739,1.202,0.483,0.868,0.835,�k�k��,7.5,��
2018/02/18,18:40,0.884,1.482,0.924,1.738,1.200,0.480,0.866,0.836,�k��,8.1,��
2018/02/18,18:50,0.881,1.483,0.922,1.738,1.202,0.483,0.867,0.834,�k��,8.1,��
2018/02/18,19:00,0.882,1.484,0.922,1.737,1.200,0.484,0.866,0.835,�k��,6.9,��
2018/02/18,19:10,0.881,1.485,0.924,1.739,1.197,0.481,0.864,0.835,�k��,6.9,��
2018/02/18,19:20,0.881,1.487,0.922,1.737,1.199,0.483,0.866,0.836,�k��,6.6,��
2018/02/18,19:30,0.884,1.490,0.924,1.737,1.200,0.484,0.867,0.835,�k��,5.7,��
2018/02/18,19:40,0.882,1.487,0.922,1.737,1.201,0.483,0.866,0.834,���k��,3.4,��
2018/02/18,19:50,0.881,1.486,0.924,1.737,1.201,0.485,0.867,0.835,���쐼,1.4,��
2018/02/18,20:00,0.883,1.487,0.922,1.736,1.200,0.482,0.865,0.835,���쐼,0.8,��
2018/02/18,20:10,0.883,1.488,0.924,1.738,1.199,0.484,0.866,0.835,���쐼,0.8,��
2018/02/18,20:20,0.882,1.487,0.924,1.738,1.199,0.486,0.865,0.834,-,CALM,��
2018/02/18,20:30,0.882,1.485,0.922,1.739,1.201,0.485,0.865,0.834,-,CALM,��
2018/02/18,20:40,0.883,1.484,0.921,1.734,1.200,0.484,0.865,0.834,�쐼,0.9,��
2018/02/18,20:50,0.881,1.486,0.924,1.738,1.200,0.484,0.865,0.835,���쐼,0.9,��
2018/02/18,21:00,0.883,1.484,0.924,1.736,1.199,0.483,0.866,0.833,���쐼,1.1,��
2018/02/18,21:10,0.880,1.486,0.925,1.736,1.199,0.484,0.864,0.834,���k��,0.9,��
2018/02/18,21:20,0.883,1.486,0.923,1.738,1.197,0.484,0.865,0.835,�k�k��,1.1,��
2018/02/18,21:30,0.882,1.485,0.924,1.736,1.198,0.484,0.865,0.835,���k��,0.6,��
2018/02/18,21:40,0.882,1.485,0.921,1.734,1.199,0.484,0.862,0.834,��,0.6,��
2018/02/18,21:50,0.882,1.486,0.923,1.739,1.198,0.485,0.865,0.835,��,0.9,��
2018/02/18,22:00,0.883,1.486,0.922,1.735,1.197,0.484,0.865,0.834,��,0.8,��
2018/02/18,22:10,0.882,1.485,0.923,1.737,1.198,0.485,0.865,0.835,�쓌,0.8,��
2018/02/18,22:20,0.883,1.484,0.923,1.736,1.199,0.485,0.865,0.834,���쓌,1.1,��
2018/02/18,22:30,0.882,1.483,0.924,1.736,1.199,0.484,0.863,0.833,��,1.2,��
2018/02/18,22:40,0.882,1.483,0.923,1.735,1.199,0.483,0.864,0.835,���k��,1.1,��
2018/02/18,22:50,0.882,1.482,0.923,1.738,1.197,0.483,0.864,0.834,���k��,0.9,��
2018/02/18,23:00,0.881,1.487,0.923,1.736,1.200,0.486,0.862,0.834,�k��,1.2,��
2018/02/18,23:10,0.881,1.486,0.924,1.736,1.198,0.484,0.863,0.834,���k��,0.9,��
2018/02/18,23:20,0.882,1.486,0.921,1.735,1.197,0.484,0.864,0.834,���쓌,1.1,��
2018/02/18,23:30,0.881,1.487,0.923,1.735,1.198,0.483,0.864,0.833,��,1.5,��
2018/02/18,23:40,0.883,1.486,0.923,1.738,1.198,0.483,0.864,0.835,��,2.0,��
2018/02/18,23:50,0.883,1.483,0.922,1.736,1.194,0.483,0.865,0.833,-,CALM,��
